Flag for India Weather past 2 weeks in Allahabad, Uttar Pradesh, India

Now
64 °F

Fog.


Feels Like: 64 °F
Forecast: 54 / 62 °F
Wind: No wind

Location: Varanasi / Babatpur

Current Time: Jan 25, 2015 at 8:19:48 PM

Latest Report: Jan 25, 2015 at 7:00 PM


Visibility: 2 mi

Pressure: 30.09 "Hg

Humidity: 83%

Dew point: 59 °F

Location of AllahabadLocation

Historic Weather in Allahabad — Graph

°F

Allahabad temperature yesterday

Maximum temperature yesterday: 72 °F (at 2:00 PM)
Minimum temperature yesterday: 55 °F (at 5:00 AM)
Average temperature yesterday: 64 °F

Past Weeks' High & Low Weather Summary

 TemperatureHumidityPressure
High73 °F (Jan 23, 3:00 PM)100% (Jan 11, 5:00 AM)30.24 "Hg (Jan 11, 5:00 AM)
Low41 °F (Jan 21, 6:00 AM)44% (Jan 22, 3:00 PM)29.89 "Hg (Jan 22, 12:00 AM)
Average54 °F87%30.09 "Hg
* Reported Jan 10 7:00 PM — Jan 25 7:00 PM, Allahabad, Weather by CustomWeather, © 2014

Note: Actual official high and low records may vary slightly from our data, if they occured in-between our weather recording intervals... More about our weather records

Advertising

Allahabad weather history for previous 24 hours

 ConditionsComfort  
Time TempWeatherWind HumidityBarometerVisibility
7:00 PM
Jan 25
64 °FFog.No wind83%30.09 "Hg1 mi
6:00 PM64 °FFog.2 mph83%30.09 "Hg1 mi
5:00 PM64 °FScattered clouds.3 mph73%30.09 "Hg1 mi
3:00 PM66 °FScattered clouds.3 mph64%30.09 "Hg2 mi
11:00 AM59 °FFog.No wind88%30.18 "Hg1 mi
10:00 AM55 °FFog.2 mph94%30.18 "Hg1 mi
9:00 AM55 °FFog.3 mph94%30.15 "Hg0 mi
7:00 AM54 °FFog.3 mph94%30.09 "Hg0 mi
6:00 AM54 °FFog.2 mph94%30.09 "Hg0 mi
5:00 AM54 °FFog.3 mph100%30.07 "Hg0 mi
4:00 AM55 °FFog.3 mph94%30.07 "Hg1 mi
12:00 AM57 °FFog.2 mph88%30.09 "Hg1 mi
11:00 PM
Jan 24
59 °FFog.2 mph88%30.09 "Hg1 mi
10:00 PM61 °FHaze.3 mph94%30.09 "Hg1 mi
9:00 PM63 °FHaze.5 mph83%30.09 "Hg2 mi
8:00 PM64 °FHaze.3 mph78%30.09 "Hg2 mi
Weather by CustomWeather, © 2014

See weather overviewHow to use our weather pages